TimeMST,TemperatureF,Dew PointF,Humidity,Sea Level PressureIn,VisibilityMPH,Wind Direction,Wind SpeedMPH,Gust SpeedMPH,PrecipitationIn,Events,Conditions,WindDirDegrees,DateUTC
12:51 AM,28.0,25.0,88,30.38,10.0,Calm,Calm,-,N/A,,Overcast,0,2012-11-13 07:51:00
1:14 AM,28.4,26.6,93,30.28,10.0,Calm,Calm,-,N/A,,Overcast,0,2012-11-13 08:14:00
1:51 AM,28.0,26.1,92,30.39,8.0,Calm,Calm,-,N/A,,Overcast,0,2012-11-13 08:51:00
2:51 AM,28.0,26.1,92,30.38,10.0,Calm,Calm,-,N/A,,Overcast,0,2012-11-13 09:51:00
3:19 AM,28.4,26.6,93,30.28,10.0,Calm,Calm,-,N/A,,Overcast,0,2012-11-13 10:19:00
3:51 AM,28.9,26.1,89,30.37,10.0,Calm,Calm,-,N/A,,Overcast,0,2012-11-13 10:51:00
4:06 AM,28.4,26.6,93,30.27,10.0,Calm,Calm,-,N/A,,Overcast,0,2012-11-13 11:06:00
4:51 AM,28.0,26.1,92,30.37,10.0,Calm,Calm,-,N/A,,Overcast,0,2012-11-13 11:51:00
5:51 AM,28.0,26.1,92,30.37,10.0,Calm,Calm,-,N/A,,Overcast,0,2012-11-13 12:51:00
6:16 AM,28.4,26.6,93,30.26,10.0,Calm,Calm,-,N/A,,Overcast,0,2012-11-13 13:16:00
6:28 AM,28.4,26.6,93,30.26,9.0,Calm,Calm,-,N/A,,Overcast,0,2012-11-13 13:28:00
6:51 AM,28.0,27.0,96,30.36,8.0,Calm,Calm,-,N/A,,Overcast,0,2012-11-13 13:51:00
6:58 AM,28.4,26.6,93,30.26,9.0,Calm,Calm,-,N/A,,Overcast,0,2012-11-13 13:58:00
7:13 AM,28.4,26.6,93,30.26,6.0,Calm,Calm,-,N/A,,Overcast,0,2012-11-13 14:13:00
7:48 AM,28.4,26.6,93,30.26,8.0,Calm,Calm,-,N/A,,Overcast,0,2012-11-13 14:48:00
7:51 AM,28.9,27.0,92,30.35,9.0,Calm,Calm,-,N/A,,Overcast,0,2012-11-13 14:51:00
8:33 AM,28.4,26.6,93,30.26,10.0,Calm,Calm,-,N/A,,Overcast,0,2012-11-13 15:33:00
8:39 AM,28.4,26.6,93,30.27,10.0,Calm,Calm,-,N/A,,Overcast,0,2012-11-13 15:39:00
8:51 AM,28.9,27.0,92,30.37,10.0,Calm,Calm,-,N/A,,Overcast,0,2012-11-13 15:51:00
9:32 AM,30.2,26.6,86,30.27,10.0,Calm,Calm,-,N/A,,Overcast,0,2012-11-13 16:32:00
9:51 AM,30.0,28.0,92,30.36,10.0,Calm,Calm,-,N/A,,Overcast,0,2012-11-13 16:51:00
10:11 AM,30.2,28.4,93,30.27,10.0,Calm,Calm,-,N/A,,Overcast,0,2012-11-13 17:11:00
10:20 AM,30.2,28.4,93,30.26,10.0,Calm,Calm,-,N/A,,Overcast,0,2012-11-13 17:20:00
10:43 AM,32.0,28.4,87,30.26,10.0,Calm,Calm,-,N/A,,Overcast,0,2012-11-13 17:43:00
10:51 AM,30.9,28.0,89,30.35,10.0,Calm,Calm,-,N/A,,Overcast,0,2012-11-13 17:51:00
10:57 AM,32.0,28.4,87,30.26,10.0,Calm,Calm,-,N/A,,Overcast,0,2012-11-13 17:57:00
11:06 AM,32.0,28.4,87,30.26,10.0,Calm,Calm,-,N/A,,Overcast,0,2012-11-13 18:06:00
11:36 AM,32.0,28.4,87,30.26,10.0,Calm,Calm,-,N/A,,Overcast,0,2012-11-13 18:36:00
11:51 AM,32.0,28.0,85,30.35,10.0,Calm,Calm,-,N/A,,Overcast,0,2012-11-13 18:51:00
11:58 AM,32.0,28.4,87,30.26,7.0,Calm,Calm,-,N/A,,Overcast,0,2012-11-13 18:58:00
12:05 PM,32.0,28.4,87,30.25,4.0,Calm,Calm,-,0.00,Snow,Light Snow,0,2012-11-13 19:05:00
12:30 PM,32.0,28.4,87,30.24,7.0,Calm,Calm,-,0.00,,Overcast,0,2012-11-13 19:30:00
12:37 PM,32.0,28.4,87,30.24,5.0,Calm,Calm,-,0.00,,Overcast,0,2012-11-13 19:37:00
12:47 PM,32.0,28.4,87,30.23,3.0,Calm,Calm,-,0.00,Snow,Light Snow,0,2012-11-13 19:47:00
12:51 PM,32.0,28.9,88,30.32,2.0,Calm,Calm,-,0.00,Snow,Light Snow,0,2012-11-13 19:51:00
12:56 PM,32.0,28.4,87,30.23,1.8,Calm,Calm,-,0.00,Snow,Light Snow,0,2012-11-13 19:56:00
1:08 PM,32.0,30.2,93,30.23,2.0,Calm,Calm,-,0.00,Snow,Light Snow,0,2012-11-13 20:08:00
1:18 PM,33.8,30.2,87,30.23,4.0,Calm,Calm,-,0.00,Snow,Light Snow,0,2012-11-13 20:18:00
1:29 PM,33.8,30.2,87,30.23,6.0,Calm,Calm,-,0.00,,Overcast,0,2012-11-13 20:29:00
1:51 PM,33.1,30.0,89,30.30,10.0,Calm,Calm,-,0.00,,Overcast,0,2012-11-13 20:51:00
2:51 PM,34.0,30.9,89,30.28,9.0,Calm,Calm,-,0.00,,Overcast,0,2012-11-13 21:51:00
3:31 PM,33.8,30.2,87,30.19,7.0,Calm,Calm,-,0.00,Snow,Light Snow,0,2012-11-13 22:31:00
3:40 PM,33.8,30.2,87,30.19,10.0,Calm,Calm,-,0.00,,Overcast,0,2012-11-13 22:40:00
3:51 PM,34.0,30.9,89,30.27,10.0,Calm,Calm,-,0.00,,Overcast,0,2012-11-13 22:51:00
4:35 PM,35.6,30.2,81,30.18,10.0,Calm,Calm,-,N/A,,Overcast,0,2012-11-13 23:35:00
4:45 PM,33.8,32.0,93,30.18,4.0,East,3.5,-,0.00,Snow,Light Snow,100,2012-11-13 23:45:00
4:51 PM,34.0,32.0,92,30.26,2.0,ESE,3.5,-,0.00,Snow,Light Snow,110,2012-11-13 23:51:00
5:07 PM,33.8,32.0,93,30.18,6.0,Calm,Calm,-,0.01,Snow,Light Snow,0,2012-11-14 00:07:00
5:41 PM,33.8,32.0,93,30.17,5.0,Calm,Calm,-,0.01,,Overcast,0,2012-11-14 00:41:00
5:51 PM,33.1,32.0,96,30.24,8.0,Calm,Calm,-,0.01,,Overcast,0,2012-11-14 00:51:00
6:29 PM,33.8,32.0,93,30.16,10.0,Calm,Calm,-,N/A,,Overcast,0,2012-11-14 01:29:00
6:51 PM,33.1,32.0,96,30.24,10.0,Calm,Calm,-,N/A,,Overcast,0,2012-11-14 01:51:00
7:07 PM,33.8,30.2,87,30.16,10.0,Calm,Calm,-,N/A,,Overcast,0,2012-11-14 02:07:00
7:29 PM,33.8,32.0,93,30.16,10.0,Calm,Calm,-,N/A,,Overcast,0,2012-11-14 02:29:00
7:37 PM,33.8,30.2,87,30.16,10.0,Calm,Calm,-,N/A,,Overcast,0,2012-11-14 02:37:00
7:45 PM,33.8,30.2,87,30.16,10.0,Calm,Calm,-,N/A,,Overcast,0,2012-11-14 02:45:00
7:51 PM,33.1,30.9,92,30.24,10.0,Calm,Calm,-,N/A,,Overcast,0,2012-11-14 02:51:00
8:24 PM,33.8,32.0,93,30.16,6.0,Calm,Calm,-,N/A,,Overcast,0,2012-11-14 03:24:00
8:45 PM,33.8,30.2,87,30.16,6.0,Calm,Calm,-,N/A,,Overcast,0,2012-11-14 03:45:00
8:51 PM,33.1,30.9,92,30.24,7.0,Calm,Calm,-,N/A,,Overcast,0,2012-11-14 03:51:00
9:13 PM,33.8,30.2,87,30.17,7.0,Calm,Calm,-,N/A,,Overcast,0,2012-11-14 04:13:00
9:51 PM,33.1,32.0,96,30.24,7.0,Calm,Calm,-,N/A,,Overcast,0,2012-11-14 04:51:00
10:51 PM,30.9,30.9,100,30.24,4.0,Calm,Calm,-,N/A,,Overcast,0,2012-11-14 05:51:00
11:28 PM,32.0,30.2,93,30.15,5.0,Calm,Calm,-,N/A,,Overcast,0,2012-11-14 06:28:00
11:51 PM,32.0,30.9,96,30.22,5.0,Calm,Calm,-,0.00,,Overcast,0,2012-11-14 06:51:00